| time (UTC) | temp F | wind direction | speed MPH | gust MPH | rain 1hr in | rain 24hr in | rain mn in | humidity % | barometer mb |
| 20260504140504 | 56 | 284 | 0.0 | 0.0 | 0.00 | 0.00 | 0.00 | 57 | 1014.8 |
| 20260504130504 | 55 | 283 | 0.0 | 0.0 | 0.00 | 0.00 | 0.00 | 46 | 1014.8 |
| 20260504110504 | 53 | 297 | 0.0 | 0.0 | 0.00 | 0.00 | 0.00 | 45 | 1015.0 |
| 20260504100504 | 56 | 277 | 0.0 | 0.0 | 0.00 | 0.00 | 0.00 | 42 | 1015.0 |
| 20260504082004 | 56 | 271 | 0.0 | 0.0 | 0.00 | 0.00 | 0.00 | 45 | 1015.4 |
| 20260504081504 | 56 | 271 | 0.0 | 0.0 | 0.00 | 0.00 | 0.00 | 45 | 1015.4 |
| 20260504081004 | 56 | 271 | 0.0 | 0.0 | 0.00 | 0.00 | 0.00 | 45 | 1015.5 |
| 20260504080504 | 56 | 271 | 0.0 | 0.0 | 0.00 | 0.00 | 0.00 | 45 | 1015.5 |
| 20260504050504 | 57 | 285 | 0.0 | 0.0 | 0.00 | 0.00 | 0.00 | 43 | 1016.2 |
| 20260504050004 | 58 | 286 | 0.0 | 0.0 | 0.00 | 0.00 | 0.00 | 44 | 1016.2 |
| 20260504045504 | 58 | 281 | 0.0 | 0.0 | 0.00 | 0.00 | 0.00 | 42 | 1016.2 |
| 20260504045004 | 58 | 281 | 0.0 | 0.0 | 0.00 | 0.00 | 0.00 | 42 | 1016.2 |
| 20260504044504 | 58 | 296 | 0.0 | 0.0 | 0.00 | 0.00 | 0.00 | 42 | 1016.2 |
| 20260504044003 | 58 | 329 | 0.0 | 0.0 | 0.00 | 0.00 | 0.00 | 43 | 1016.2 |
| 20260504043504 | 58 | 329 | 0.0 | 0.0 | 0.00 | 0.00 | 0.00 | 42 | 1016.3 |
| 20260504043004 | 59 | 329 | 0.0 | 0.0 | 0.00 | 0.00 | 0.00 | 40 | 1016.3 |
| 20260504042503 | 59 | 329 | 0.0 | 0.0 | 0.00 | 0.00 | 0.00 | 41 | 1016.2 |
| 20260504042004 | 59 | 330 | 0.0 | 0.0 | 0.00 | 0.00 | 0.00 | 40 | 1016.3 |
| 20260504041504 | 59 | 330 | 0.0 | 0.0 | 0.00 | 0.00 | 0.00 | 40 | 1016.3 |
| 20260504041004 | 60 | 330 | 0.0 | 0.0 | 0.00 | 0.00 | 0.00 | 40 | 1016.3 |
| 20260504040503 | 60 | 330 | 0.0 | 0.0 | 0.00 | 0.00 | 0.00 | 39 | 1016.3 |
| 20260504040004 | 60 | 330 | 0.0 | 0.0 | 0.00 | 0.00 | 0.00 | 38 | 1016.2 |
| 20260504035503 | 60 | 330 | 0.0 | 0.0 | 0.00 | 0.00 | 0.00 | 39 | 1016.2 |
| 20260504035004 | 60 | 330 | 0.0 | 0.0 | 0.00 | 0.00 | 0.00 | 39 | 1016.2 |
| 20260504034505 | 60 | 330 | 0.0 | 0.0 | 0.00 | 0.00 | 0.00 | 40 | 1016.2 |
| 20260504034004 | 61 | 330 | 0.0 | 0.0 | 0.00 | 0.00 | 0.00 | 40 | 1016.1 |
| 20260504032505 | 62 | 330 | 0.0 | 0.0 | 0.00 | 0.00 | 0.00 | 38 | 1016.1 |
| 20260504032004 | 62 | 330 | 0.0 | 0.0 | 0.00 | 0.00 | 0.00 | 38 | 1016.1 |
| 20260504031504 | 62 | 330 | 0.0 | 0.0 | 0.00 | 0.00 | 0.00 | 38 | 1016.0 |
| 20260504031004 | 62 | 330 | 0.0 | 0.0 | 0.00 | 0.00 | 0.00 | 38 | 1016.0 |
| 20260504030504 | 63 | 330 | 0.0 | 0.0 | 0.00 | 0.00 | 0.00 | 37 | 1016.0 |
| 20260504030005 | 64 | 330 | 0.0 | 0.0 | 0.00 | 0.00 | 0.00 | 36 | 1015.9 |
| 20260504025504 | 64 | 330 | 0.0 | 0.0 | 0.00 | 0.00 | 0.00 | 35 | 1015.9 |
| 20260504025004 | 65 | 330 | 0.0 | 0.0 | 0.00 | 0.00 | 0.00 | 35 | 1015.9 |
| 20260504024504 | 65 | 330 | 0.0 | 0.0 | 0.00 | 0.00 | 0.00 | 36 | 1015.9 |
| 20260504023504 | 66 | 330 | 0.0 | 0.0 | 0.00 | 0.00 | 0.00 | 36 | 1015.9 |
| 20260504021504 | 67 | 332 | 0.0 | 0.0 | 0.00 | 0.00 | 0.00 | 35 | 1016.0 |
| 20260504021004 | 68 | 332 | 0.0 | 0.0 | 0.00 | 0.00 | 0.00 | 36 | 1016.1 |
| 20260504020504 | 68 | 333 | 0.0 | 0.0 | 0.00 | 0.00 | 0.00 | 36 | 1016.1 |
| 20260504020004 | 68 | 328 | 0.0 | 0.0 | 0.00 | 0.00 | 0.00 | 35 | 1016.1 |
| 20260504014504 | 69 | 335 | 0.0 | 0.0 | 0.00 | 0.00 | 0.00 | 32 | 1016.2 |
| 20260504014004 | 70 | 341 | 0.0 | 0.0 | 0.00 | 0.00 | 0.00 | 31 | 1016.3 |
| 20260504013504 | 70 | 336 | 0.0 | 3.0 | 0.00 | 0.00 | 0.00 | 32 | 1016.3 |
| 20260504013005 | 70 | 333 | 0.0 | 5.0 | 0.00 | 0.00 | 0.00 | 31 | 1016.4 |
| 20260504012004 | 71 | 343 | 0.0 | 1.0 | 0.00 | 0.00 | 0.00 | 33 | 1016.4 |
| 20260504011504 | 71 | 342 | 0.0 | 0.0 | 0.00 | 0.00 | 0.00 | 35 | 1016.5 |
| 20260504011004 | 71 | 334 | 0.0 | 1.0 | 0.00 | 0.00 | 0.00 | 34 | 1016.5 |
| 20260504010004 | 72 | 338 | 0.0 | 3.0 | 0.00 | 0.00 | 0.00 | 35 | 1016.6 |
| 20260504005504 | 72 | 335 | 0.0 | 1.0 | 0.00 | 0.00 | 0.00 | 36 | 1016.6 |
| 20260504005005 | 71 | 344 | 0.0 | 3.0 | 0.00 | 0.00 | 0.00 | 36 | 1016.7 |
| 20260504004504 | 72 | 309 | 1.0 | 3.0 | 0.00 | 0.00 | 0.00 | 33 | 1016.7 |
| 20260504003504 | 72 | 332 | 0.0 | 8.0 | 0.00 | 0.00 | 0.00 | 34 | 1016.8 |
| 20260504002504 | 72 | 309 | 1.0 | 3.0 | 0.00 | 0.00 | 0.00 | 33 | 1016.8 |
| 20260504002004 | 72 | 312 | 1.0 | 3.0 | 0.00 | 0.00 | 0.00 | 32 | 1016.9 |
| 20260504001504 | 72 | 317 | 1.0 | 5.0 | 0.00 | 0.00 | 0.00 | 31 | 1016.9 |
| 20260504001004 | 72 | 326 | 0.0 | 2.0 | 0.00 | 0.00 | 0.00 | 31 | 1016.9 |
| 20260504000504 | 72 | 315 | 0.0 | 3.0 | 0.00 | 0.00 | 0.00 | 30 | 1017.0 |
| 20260504000004 | 73 | 314 | 0.0 | 3.0 | 0.00 | 0.00 | 0.00 | 31 | 1017.0 |
| 20260503235504 | 72 | 302 | 1.0 | 5.0 | 0.00 | 0.00 | 0.00 | 31 | 1017.0 |
| 20260503235004 | 73 | 315 | 2.0 | 8.0 | 0.00 | 0.00 | 0.00 | 31 | 1017.1 |
| 20260503234504 | 73 | 323 | 0.0 | 2.0 | 0.00 | 0.00 | 0.00 | 32 | 1017.0 |
| 20260503234004 | 73 | 314 | 0.0 | 5.0 | 0.00 | 0.00 | 0.00 | 33 | 1017.0 |
| 20260503233504 | 74 | 310 | 1.0 | 7.0 | 0.00 | 0.00 | 0.00 | 32 | 1017.1 |
| 20260503233004 | 74 | 337 | 0.0 | 2.0 | 0.00 | 0.00 | 0.00 | 33 | 1017.1 |
| 20260503232504 | 74 | 340 | 0.0 | 3.0 | 0.00 | 0.00 | 0.00 | 30 | 1017.2 |
| 20260503231504 | 74 | 335 | 0.0 | 3.0 | 0.00 | 0.00 | 0.00 | 31 | 1017.2 |
| 20260503231004 | 74 | 317 | 0.0 | 5.0 | 0.00 | 0.00 | 0.00 | 34 | 1017.3 |
| 20260503230504 | 73 | 330 | 1.0 | 7.0 | 0.00 | 0.00 | 0.00 | 33 | 1017.3 |
| 20260503230004 | 74 | 319 | 1.0 | 3.0 | 0.00 | 0.00 | 0.00 | 31 | 1017.3 |
| 20260503224504 | 75 | 317 | 1.0 | 3.0 | 0.00 | 0.00 | 0.00 | 32 | 1017.6 |
| 20260503223504 | 75 | 325 | 0.0 | 8.0 | 0.00 | 0.00 | 0.00 | 31 | 1017.7 |
| 20260503223004 | 74 | 343 | 0.0 | 3.0 | 0.00 | 0.00 | 0.00 | 33 | 1017.7 |
| 20260503222004 | 74 | 306 | 1.0 | 8.0 | 0.00 | 0.00 | 0.00 | 32 | 1017.8 |
| 20260503221504 | 75 | 307 | 1.0 | 5.0 | 0.00 | 0.00 | 0.00 | 30 | 1017.8 |
| 20260503221004 | 75 | 338 | 0.0 | 2.0 | 0.00 | 0.00 | 0.00 | 31 | 1017.8 |
| 20260503220504 | 74 | 351 | 1.0 | 3.0 | 0.00 | 0.00 | 0.00 | 29 | 1017.9 |
| 20260503220004 | 75 | 316 | 0.0 | 6.0 | 0.00 | 0.00 | 0.00 | 31 | 1017.9 |
| 20260503215504 | 75 | 351 | 0.0 | 2.0 | 0.00 | 0.00 | 0.00 | 29 | 1018.0 |
| 20260503214004 | 75 | 342 | 1.0 | 9.0 | 0.00 | 0.00 | 0.00 | 30 | 1018.2 |
| 20260503213003 | 76 | 352 | 0.0 | 3.0 | 0.00 | 0.00 | 0.00 | 28 | 1018.2 |
| 20260503212503 | 76 | 343 | 1.0 | 9.0 | 0.00 | 0.00 | 0.00 | 27 | 1018.3 |
| 20260503211504 | 76 | 328 | 0.0 | 3.0 | 0.00 | 0.00 | 0.00 | 28 | 1018.3 |
| 20260503211003 | 75 | 335 | 0.0 | 2.0 | 0.00 | 0.00 | 0.00 | 28 | 1018.4 |
| 20260503210004 | 76 | 327 | 0.0 | 3.0 | 0.00 | 0.00 | 0.00 | 28 | 1018.4 |
| 20260503205503 | 76 | 331 | 0.0 | 2.0 | 0.00 | 0.00 | 0.00 | 28 | 1018.5 |
| 20260503205004 | 77 | 318 | 0.0 | 2.0 | 0.00 | 0.00 | 0.00 | 28 | 1018.5 |
| 20260503204503 | 76 | 330 | 0.0 | 2.0 | 0.00 | 0.00 | 0.00 | 28 | 1018.5 |
| 20260503204004 | 75 | 20 | 0.0 | 2.0 | 0.00 | 0.00 | 0.00 | 24 | 1018.5 |
| 20260503203504 | 76 | 345 | 0.0 | 2.0 | 0.00 | 0.00 | 0.00 | 24 | 1018.6 |
| 20260503202504 | 76 | 344 | 0.0 | 3.0 | 0.00 | 0.00 | 0.00 | 25 | 1018.6 |
| 20260503202004 | 77 | 348 | 0.0 | 5.0 | 0.00 | 0.00 | 0.00 | 26 | 1018.7 |
| 20260503201503 | 76 | 355 | 0.0 | 2.0 | 0.00 | 0.00 | 0.00 | 25 | 1018.7 |
| 20260503201004 | 75 | 343 | 0.0 | 2.0 | 0.00 | 0.00 | 0.00 | 27 | 1018.7 |
| 20260503200004 | 75 | 309 | 0.0 | 3.0 | 0.00 | 0.00 | 0.00 | 28 | 1018.8 |
| 20260503195504 | 74 | 318 | 0.0 | 1.0 | 0.00 | 0.00 | 0.00 | 29 | 1018.8 |
| 20260503195004 | 73 | 286 | 0.0 | 3.0 | 0.00 | 0.00 | 0.00 | 27 | 1018.9 |
| 20260503194504 | 74 | 302 | 0.0 | 2.0 | 0.00 | 0.00 | 0.00 | 27 | 1018.9 |
| 20260503194004 | 75 | 299 | 1.0 | 3.0 | 0.00 | 0.00 | 0.00 | 29 | 1019.0 |
| 20260503193503 | 76 | 316 | 0.0 | 1.0 | 0.00 | 0.00 | 0.00 | 27 | 1019.0 |
| 20260503193005 | 76 | 322 | 0.0 | 2.0 | 0.00 | 0.00 | 0.00 | 28 | 1019.1 |
| 20260503192504 | 77 | 347 | 0.0 | 0.0 | 0.00 | 0.00 | 0.00 | 29 | 1019.1 |
| 20260503191004 | 72 | 11 | 0.0 | 1.0 | 0.00 | 0.00 | 0.00 | 33 | 1019.2 |
| 20260503190504 | 70 | 81 | 0.0 | 0.0 | 0.00 | 0.00 | 0.00 | 37 | 1019.3 |
| 20260503185504 | 71 | 84 | 0.0 | 0.0 | 0.00 | 0.00 | 0.00 | 36 | 1019.4 |
| 20260503185004 | 73 | 68 | 0.0 | 0.0 | 0.00 | 0.00 | 0.00 | 33 | 1019.4 |
| 20260503184504 | 73 | 49 | 0.0 | 0.0 | 0.00 | 0.00 | 0.00 | 30 | 1019.5 |
| 20260503183504 | 71 | 71 | 0.0 | 0.0 | 0.00 | 0.00 | 0.00 | 32 | 1019.5 |
| 20260503183004 | 72 | 59 | 0.0 | 0.0 | 0.00 | 0.00 | 0.00 | 30 | 1019.6 |
| 20260503182504 | 72 | 54 | 0.0 | 1.0 | 0.00 | 0.00 | 0.00 | 30 | 1019.6 |
| 20260503182005 | 72 | 52 | 0.0 | 0.0 | 0.00 | 0.00 | 0.00 | 31 | 1019.6 |
| 20260503181505 | 72 | 52 | 0.0 | 0.0 | 0.00 | 0.00 | 0.00 | 31 | 1019.7 |
| 20260503181005 | 73 | 54 | 0.0 | 0.0 | 0.00 | 0.00 | 0.00 | 33 | 1019.7 |
| 20260503180504 | 72 | 21 | 0.0 | 0.0 | 0.00 | 0.00 | 0.00 | 33 | 1019.7 |
| 20260503180004 | 72 | 53 | 0.0 | 0.0 | 0.00 | 0.00 | 0.00 | 36 | 1019.7 |
| 20260503175504 | 72 | 55 | 0.0 | 0.0 | 0.00 | 0.00 | 0.00 | 38 | 1019.7 |
| 20260503175004 | 72 | 61 | 0.0 | 0.0 | 0.00 | 0.00 | 0.00 | 35 | 1019.8 |
| 20260503174505 | 72 | 30 | 0.0 | 0.0 | 0.00 | 0.00 | 0.00 | 34 | 1019.8 |
| 20260503174005 | 71 | 27 | 0.0 | 0.0 | 0.00 | 0.00 | 0.00 | 33 | 1019.8 |
| 20260503173504 | 71 | 46 | 0.0 | 0.0 | 0.00 | 0.00 | 0.00 | 36 | 1019.8 |
| 20260503173004 | 72 | 49 | 0.0 | 0.0 | 0.00 | 0.00 | 0.00 | 32 | 1019.8 |
| 20260503172505 | 71 | 43 | 0.0 | 0.0 | 0.00 | 0.00 | 0.00 | 37 | 1019.8 |
| 20260503172004 | 71 | 33 | 0.0 | 0.0 | 0.00 | 0.00 | 0.00 | 36 | 1019.9 |
| 20260503171504 | 70 | 41 | 0.0 | 0.0 | 0.00 | 0.00 | 0.00 | 37 | 1019.9 |
| 20260503171005 | 70 | 56 | 0.0 | 0.0 | 0.00 | 0.00 | 0.00 | 43 | 1019.8 |
| 20260503151004 | 63 | 300 | 0.0 | 0.0 | 0.00 | 0.00 | 0.00 | 46 | 1019.7 |
| 20260503150504 | 61 | 300 | 0.0 | 0.0 | 0.00 | 0.00 | 0.00 | 49 | 1019.8 |